Tracking 17844 objects as of 25-August-2016
HD Live streaming from Space Station
objects crossing your sky now

ERS 1

Track ERS 1 now!
10-day predictions
ERS 1 is classified as:


NORAD ID: 21574
Int'l Code: 1991-050A
Perigee: 749.6 km
Apogee: 798.2 km
Inclination: 98.4 °
Period: 100.2 minutes
Semi major axis: 7144 km
RCS: 11.0086 m2 (large)
Launch date: July 17, 1991
Source: European Space Agency (ESA)
Launch site: FRENCH GUIANA (FRGUI)
Your satellite tracking list
Your tracking list is empty





NASA's NSSDC Master Catalog

Two Line Element Set (TLE):
1 21574U 91050A   16238.87072202  .00000063  00000-0  35153-4 0  9992
2 21574  98.4192 185.3706 0034092 116.1125 244.3577 14.37512111315163
Source of the keplerian elements: AFSPC

N2YO: 768